Location: Fours
(44.3167°N, 6.7000°E)
Time: 15:02:24
(UTC+00:00)

ISS - Pass Details

Date: 02 October 2021
Orbit: 418 x 423 km, 51.6° (Epoch: 19 October)

Event Time Altitude Azimuth Distance (km) Brightness Sun altitude
Rises 19:05:11 0° 299° (WNW) 2,366 1.5 -20.9°
Reaches altitude 10° 19:07:18 10° 295° (WNW) 1,500 0.2 -21.3°
Enters shadow 19:10:20 55° 243° (WSW) 506 -3.2 -21.8°
